UAL58 KSFO-EDDF

Flight info

Callsign UAL58
Flight time N/A
Altitude 33000
Route SNTNA2 DEDHD DCT ILA DCT BKE DCT STIGS J540 YQL Q896 MEETO DCT 58N100W/N0492F350 63N090W 66N080W 6730N07000W/M084F350 DCT CANEL DCT 68N060W 68N050W 6730N04000W 66N030W/M084F370 64N020W DCT RATSU/N0487F370 DCT BARKU DCT GODOS DCT AMGOD DCT PETIK DCT SOGPO DCT DIXAT DIXAT1A
Aircraft B77W/H-SDE1E2E3FGHIJ2J3J4J5M1RWXY/LB1D1

Departure

Time 2026-05-04 04:28
Airport San Francisco International Airport (KSFO)

Arrival

Time N/A
Airport Frankfurt Main Airport (EDDF)
Time Latitude Longitude Altitude Speed Heading
2026-05-04 04:04 37.61838 -122.39104 25 ft 0 kts 206°
2026-05-04 04:15 37.61851 -122.39095 26 ft 2 kts 210°
2026-05-04 04:15 37.61865 -122.39085 26 ft 2 kts 214°
2026-05-04 04:15 37.61878 -122.39072 26 ft 2 kts 225°
2026-05-04 04:15 37.61888 -122.39056 25 ft 2 kts 256°
2026-05-04 04:16 37.61888 -122.39036 24 ft 2 kts 295°
2026-05-04 04:16 37.61885 -122.39030 24 ft 0 kts 299°
2026-05-04 04:19 37.61895 -122.39052 25 ft 6 kts 299°
2026-05-04 04:19 37.61920 -122.39109 24 ft 11 kts 298°
2026-05-04 04:20 37.61956 -122.39195 25 ft 11 kts 298°
2026-05-04 04:20 37.61993 -122.39282 24 ft 11 kts 300°
2026-05-04 04:20 37.62058 -122.39317 21 ft 12 kts 11°
2026-05-04 04:20 37.62139 -122.39269 19 ft 13 kts 29°
2026-05-04 04:21 37.62221 -122.39213 20 ft 14 kts 28°
2026-05-04 04:21 37.62301 -122.39123 19 ft 16 kts 64°
2026-05-04 04:21 37.62339 -122.38982 19 ft 18 kts 77°
2026-05-04 04:21 37.62305 -122.38837 20 ft 18 kts 118°
2026-05-04 04:22 37.62249 -122.38699 20 ft 18 kts 118°
2026-05-04 04:22 37.62191 -122.38562 28 ft 18 kts 118°
2026-05-04 04:22 37.62133 -122.38426 27 ft 18 kts 117°
2026-05-04 04:22 37.62096 -122.38334 32 ft 18 kts 117°
2026-05-04 04:23 37.62038 -122.38198 27 ft 18 kts 118°
2026-05-04 04:23 37.61981 -122.38061 28 ft 18 kts 117°
2026-05-04 04:23 37.61875 -122.37910 28 ft 18 kts 150°
2026-05-04 04:23 37.61805 -122.37789 26 ft 18 kts 111°
2026-05-04 04:24 37.61775 -122.37692 26 ft 18 kts 111°
2026-05-04 04:24 37.61730 -122.37546 26 ft 18 kts 111°
2026-05-04 04:24 37.61677 -122.37405 29 ft 18 kts 119°
2026-05-04 04:24 37.61617 -122.37269 27 ft 18 kts 118°
2026-05-04 04:25 37.61560 -122.37131 29 ft 18 kts 118°
2026-05-04 04:25 37.61502 -122.36996 27 ft 18 kts 119°
2026-05-04 04:25 37.61424 -122.36866 26 ft 24 kts 130°
2026-05-04 04:25 37.61309 -122.36642 23 ft 31 kts 117°
2026-05-04 04:26 37.61208 -122.36403 21 ft 30 kts 118°
2026-05-04 04:26 37.61129 -122.36219 24 ft 24 kts 118°
2026-05-04 04:26 37.61061 -122.36049 26 ft 18 kts 112°
2026-05-04 04:26 37.61097 -122.35908 26 ft 19 kts 31°
2026-05-04 04:27 37.61189 -122.35885 26 ft 11 kts 324°
2026-05-04 04:27 37.61224 -122.35971 24 ft 12 kts 298°
2026-05-04 04:27 37.61321 -122.36199 19 ft 70 kts 297°
2026-05-04 04:27 37.61702 -122.37106 27 ft 162 kts 297°
2026-05-04 04:28 37.62322 -122.38574 418 ft 193 kts 295°
2026-05-04 04:28 37.62941 -122.40031 977 ft 185 kts 294°
2026-05-04 04:28 37.63494 -122.41443 1513 ft 180 kts 294°
2026-05-04 04:28 37.64043 -122.42894 1891 ft 190 kts 293°
2026-05-04 04:29 37.64665 -122.44454 1931 ft 212 kts 298°
2026-05-04 04:29 37.65458 -122.46157 2157 ft 237 kts 299°
2026-05-04 04:29 37.66300 -122.47995 2749 ft 246 kts 298°
2026-05-04 04:29 37.67155 -122.49907 3469 ft 254 kts 298°
2026-05-04 04:30 37.68249 -122.51672 4009 ft 264 kts 323°
2026-05-04 04:30 37.69980 -122.52484 4715 ft 269 kts 356°
2026-05-04 04:30 37.71862 -122.52533 5312 ft 276 kts 359°
2026-05-04 04:30 37.73806 -122.52596 5989 ft 282 kts 359°
2026-05-04 04:31 37.75777 -122.52671 6697 ft 286 kts 359°
2026-05-04 04:31 37.77775 -122.52739 7413 ft 286 kts
2026-05-04 04:31 37.79708 -122.52222 7955 ft 287 kts 32°
2026-05-04 04:31 37.81167 -122.50574 8632 ft 281 kts 58°
2026-05-04 04:32 37.82065 -122.48408 9330 ft 279 kts 68°
2026-05-04 04:32 37.82859 -122.46142 10010 ft 283 kts 68°
2026-05-04 04:32 37.83756 -122.43911 10503 ft 291 kts 54°
2026-05-04 04:32 37.85389 -122.42247 10634 ft 314 kts 29°
2026-05-04 04:33 37.87421 -122.40978 10811 ft 337 kts 28°
2026-05-04 04:33 37.89593 -122.39619 10986 ft 359 kts 28°
2026-05-04 04:33 37.91855 -122.38195 11397 ft 373 kts 28°
2026-05-04 04:33 37.94205 -122.36708 12023 ft 381 kts 28°
2026-05-04 04:34 37.96596 -122.35189 12770 ft 386 kts 28°
2026-05-04 04:34 37.99004 -122.33652 13598 ft 389 kts 28°
2026-05-04 04:34 38.01428 -122.32099 14348 ft 392 kts 29°
2026-05-04 04:34 38.03880 -122.30523 15065 ft 396 kts 29°
2026-05-04 04:35 38.06352 -122.28932 15781 ft 399 kts 29°
2026-05-04 04:35 38.08842 -122.27328 16495 ft 403 kts 28°
2026-05-04 04:35 38.11351 -122.25711 17198 ft 407 kts 29°
2026-05-04 04:35 38.13856 -122.24093 17898 ft 410 kts 28°
2026-05-04 04:36 38.16416 -122.22439 18539 ft 414 kts 29°
2026-05-04 04:36 38.18993 -122.20772 19163 ft 417 kts 29°
2026-05-04 04:36 38.21587 -122.19092 19827 ft 419 kts 30°
2026-05-04 04:36 38.24188 -122.17407 20473 ft 420 kts 30°
2026-05-04 04:37 38.32078 -122.12293 22305 ft 426 kts 30°
2026-05-04 04:37 38.34876 -122.10957 22841 ft 438 kts 15°
2026-05-04 04:38 38.37926 -122.10551 23266 ft 444 kts
2026-05-04 04:38 38.41040 -122.10280 23668 ft 450 kts
2026-05-04 04:38 38.44165 -122.09990 24174 ft 451 kts
2026-05-04 04:38 38.47297 -122.09676 24725 ft 451 kts
2026-05-04 04:39 38.50428 -122.09339 25242 ft 453 kts 10°
2026-05-04 04:39 38.53535 -122.08990 25647 ft 455 kts 10°
2026-05-04 04:39 38.56693 -122.08625 26138 ft 456 kts 10°
2026-05-04 04:39 38.59867 -122.08253 26582 ft 458 kts 10°
2026-05-04 04:40 38.63052 -122.07877 26989 ft 461 kts 10°
2026-05-04 04:40 38.66265 -122.07498 27370 ft 465 kts 10°
2026-05-04 04:40 38.69494 -122.07110 27707 ft 468 kts 10°
2026-05-04 04:40 38.72747 -122.06728 28059 ft 471 kts 10°
2026-05-04 04:41 38.76022 -122.06350 28409 ft 473 kts 10°
2026-05-04 04:41 38.79311 -122.05969 28760 ft 476 kts 10°
2026-05-04 04:41 38.82620 -122.05583 29091 ft 478 kts 10°
2026-05-04 04:41 38.85944 -122.05193 29399 ft 480 kts 10°
2026-05-04 04:42 38.89276 -122.04801 29696 ft 483 kts 10°
2026-05-04 04:42 38.92633 -122.04406 30015 ft 484 kts 10°
2026-05-04 04:42 38.95979 -122.04013 30350 ft 483 kts
2026-05-04 04:42 38.99323 -122.03620 30743 ft 481 kts
2026-05-04 04:43 39.02650 -122.03201 31069 ft 479 kts 12°
2026-05-04 04:43 39.05913 -122.02393 31345 ft 476 kts 19°
2026-05-04 04:43 39.09065 -122.01144 31627 ft 473 kts 24°
2026-05-04 04:43 39.12095 -121.99531 31900 ft 469 kts 30°
2026-05-04 04:44 39.14997 -121.97619 32194 ft 469 kts 31°
2026-05-04 04:44 39.17844 -121.95702 32526 ft 466 kts 31°
2026-05-04 04:44 39.20709 -121.93765 32930 ft 464 kts 31°
2026-05-04 04:44 39.23581 -121.91828 32907 ft 468 kts 30°
2026-05-04 04:45 39.29349 -121.87962 32921 ft 465 kts 30°
2026-05-04 04:47 39.49375 -121.74596 32964 ft 461 kts 30°
2026-05-04 04:47 39.55078 -121.70774 32963 ft 462 kts 30°
2026-05-04 04:48 39.60799 -121.66933 32963 ft 463 kts 30°
2026-05-04 04:49 39.75053 -121.57333 32941 ft 461 kts 31°
2026-05-04 04:49 39.80737 -121.53492 32947 ft 460 kts 31°
2026-05-04 04:50 39.86418 -121.49646 32932 ft 459 kts 31°
2026-05-04 04:50 39.92083 -121.45805 32936 ft 459 kts 31°
2026-05-04 04:51 39.97770 -121.41937 32951 ft 462 kts 31°
2026-05-04 04:51 40.03490 -121.38040 32930 ft 465 kts 31°
2026-05-04 04:52 40.09241 -121.34117 32930 ft 467 kts 31°
2026-05-04 04:52 40.14964 -121.30206 32914 ft 467 kts 31°
2026-05-04 04:53 40.20739 -121.26253 32930 ft 468 kts 31°
2026-05-04 04:53 40.26516 -121.22289 32917 ft 469 kts 31°
2026-05-04 04:54 40.32300 -121.18314 32922 ft 469 kts 31°
2026-05-04 04:54 40.38093 -121.14324 32922 ft 470 kts 31°
2026-05-04 04:55 40.43892 -121.10321 32910 ft 471 kts 31°
2026-05-04 04:55 40.49652 -121.06338 32910 ft 471 kts 31°
2026-05-04 04:56 40.55446 -121.02324 32911 ft 471 kts 31°
2026-05-04 04:56 40.61237 -120.98304 32891 ft 470 kts 30°
2026-05-04 04:57 40.67014 -120.94287 32902 ft 467 kts 30°
2026-05-04 04:57 40.72746 -120.90292 32899 ft 465 kts 30°
2026-05-04 04:58 40.78418 -120.86331 32894 ft 463 kts 30°
2026-05-04 04:58 40.84106 -120.82351 32904 ft 462 kts 31°
2026-05-04 04:59 40.89785 -120.78369 32888 ft 462 kts 30°
2026-05-04 04:59 40.95471 -120.74374 32875 ft 463 kts 30°
2026-05-04 05:00 41.01178 -120.70357 32897 ft 465 kts 30°
2026-05-04 05:01 41.09778 -120.64289 32873 ft 468 kts 30°
2026-05-04 05:01 41.15532 -120.60219 32882 ft 469 kts 30°
2026-05-04 05:02 41.21291 -120.56139 32911 ft 469 kts 30°
2026-05-04 05:02 41.27062 -120.52040 32924 ft 470 kts 30°
2026-05-04 05:03 41.32793 -120.47962 32954 ft 470 kts 30°
2026-05-04 05:04 41.44290 -120.39756 32975 ft 468 kts 30°
2026-05-04 05:04 41.50027 -120.35649 32824 ft 466 kts 30°
2026-05-04 05:06 41.72807 -120.19255 32850 ft 467 kts 30°
2026-05-04 05:07 41.78531 -120.15117 32861 ft 467 kts 30°
2026-05-04 05:07 41.84258 -120.10966 32858 ft 468 kts 30°
2026-05-04 05:09 42.09148 -119.92829 32879 ft 470 kts 29°
2026-05-04 05:10 42.14894 -119.88618 32877 ft 470 kts 29°
2026-05-04 05:10 42.20638 -119.84401 32885 ft 470 kts 29°
2026-05-04 05:11 42.26382 -119.80175 32886 ft 470 kts 29°
2026-05-04 05:11 42.32082 -119.75971 32884 ft 470 kts 29°
2026-05-04 05:12 42.37817 -119.71734 32887 ft 470 kts 29°
2026-05-04 05:12 42.43562 -119.67480 32884 ft 470 kts 29°
2026-05-04 05:13 42.49303 -119.63220 32884 ft 471 kts 29°